FW2415 Weather Reports


time (UTC)temp
C
wind
direction
speed
KPH
gust
KPH
rain 1hr
cm
rain 24hr
cm
rain mn
cm
humidity
%
barometer
mb
20260508183006 10 300 3.2 20.9 0.00 0.00 0.00 82 1008.4
20260508182006 10 318 6.4 20.9 0.00 0.00 0.00 82 1008.4
20260508181506 10 291 9.7 20.9 0.00 0.00 0.00 82 1008.4
20260508180006 10 262 6.4 16.1 0.00 0.00 0.00 82 1008.4
20260508175506 10 282 4.8 16.1 0.00 0.00 0.00 82 1008.4
20260508175007 10 271 6.4 16.1 0.00 0.00 0.00 82 1008.4
20260508174506 10 269 4.8 14.5 0.00 0.00 0.00 82 1008.4
20260508174006 10 288 4.8 16.1 0.00 0.00 0.00 82 1008.4
20260508172506 10 261 4.8 12.9 0.00 0.00 0.00 82 1008.4
20260508172006 10 278 3.2 12.9 0.00 0.00 0.00 82 1008.4
20260508171006 10 277 4.8 12.9 0.00 0.00 0.00 82 1008.4
20260508170506 10 264 3.2 19.3 0.00 0.00 0.00 82 1008.4
20260508165006 10 248 4.8 19.3 0.00 0.00 0.00 82 1008.4
20260508164006 10 262 11.3 24.1 0.00 0.00 0.00 82 1008.4
20260508163506 10 266 8.0 19.3 0.00 0.00 0.00 82 1008.4
20260508163005 10 272 8.0 20.9 0.00 0.00 0.00 82 1008.4
20260508162506 10 272 8.0 20.9 0.00 0.00 0.00 82 1008.4
20260508162006 10 284 8.0 19.3 0.00 0.00 0.00 82 1008.4
20260508161506 10 268 9.7 19.3 0.00 0.00 0.00 82 1008.4
20260508161006 10 287 4.8 20.9 0.00 0.00 0.00 82 1008.4
20260508160506 10 270 9.7 25.7 0.00 0.00 0.00 82 1008.4
20260508160006 10 281 8.0 25.7 0.00 0.00 0.00 82 1008.4
20260508155506 10 266 11.3 24.1 0.00 0.00 0.00 82 1008.4
20260508155006 10 261 9.7 25.7 0.00 0.00 0.00 82 1008.4
20260508154506 10 248 12.9 25.7 0.00 0.00 0.00 82 1008.4
20260508153506 10 302 8.0 25.7 0.00 0.00 0.00 82 1008.4
20260508153006 10 288 8.0 25.7 0.00 0.00 0.00 82 1008.4
20260508152006 10 291 8.0 27.4 0.00 0.00 0.00 82 1008.4
20260508151506 10 296 11.3 32.2 0.00 0.00 0.00 82 1008.4
20260508151006 10 286 12.9 32.2 0.00 0.00 0.00 82 1008.4
20260508150507 10 284 20.9 32.2 0.00 0.00 0.00 82 1008.4
20260508145506 10 258 9.7 25.7 0.00 0.00 0.00 82 1008.4
20260508145006 10 283 8.0 25.7 0.00 0.00 0.00 82 1008.4
20260508144506 10 278 11.3 29.0 0.00 0.00 0.00 82 1008.4
20260508144006 10 282 12.9 29.0 0.00 0.00 0.00 82 1008.4
20260508143536 10 266 12.9 29.0 0.00 0.00 0.00 82 1008.4
20260508143010 10 301 8.0 29.0 0.00 0.00 0.00 82 1008.4
20260508142506 10 277 8.0 29.0 0.00 0.00 0.00 82 1008.4
20260508142007 10 302 8.0 25.7 0.00 0.00 0.00 82 1008.4
20260508141007 10 253 9.7 22.5 0.00 0.00 0.00 82 1008.4
20260508140506 10 317 11.3 20.9 0.00 0.00 0.00 82 1008.4
20260508140006 10 284 9.7 22.5 0.00 0.00 0.00 82 1008.4
20260508135506 10 278 8.0 22.5 0.00 0.00 0.00 82 1008.4
20260508135006 10 305 9.7 27.4 0.00 0.00 0.00 82 1008.4
20260508134506 10 260 12.9 27.4 0.00 0.00 0.00 82 1008.4
20260508133506 10 276 14.5 32.2 0.00 0.00 0.00 82 1008.4
20260508133006 10 267 6.4 27.4 0.00 0.00 0.00 82 1008.4
20260508132506 10 319 17.7 27.4 0.00 0.00 0.00 82 1008.4
20260508132006 10 315 9.7 27.4 0.00 0.00 0.00 82 1008.4
20260508131505 10 282 8.0 32.2 0.00 0.00 0.00 82 1008.4
20260508131006 10 265 16.1 32.2 0.00 0.00 0.00 82 1008.4
20260508130506 10 285 11.3 32.2 0.00 0.00 0.00 82 1008.4
20260508130006 10 272 11.3 29.0 0.00 0.00 0.00 82 1008.4
20260508125506 10 248 11.3 32.2 0.00 0.00 0.00 82 1008.4
20260508125007 10 256 16.1 32.2 0.00 0.00 0.00 82 1008.4
20260508124007 10 278 11.3 25.7 0.00 0.00 0.00 82 1008.4
20260508123506 10 260 9.7 25.7 0.00 0.00 0.00 82 1008.4
20260508123006 10 271 11.3 25.7 0.00 0.00 0.00 82 1008.4
20260508122506 10 281 8.0 20.9 0.00 0.00 0.00 82 1008.4
20260508122006 10 288 6.4 16.1 0.00 0.00 0.00 82 1008.4
20260508121506 10 275 9.7 16.1 0.00 0.00 0.00 82 1008.4
20260508115506 10 284 9.7 22.5 0.00 0.00 0.00 82 1008.4
20260508115006 10 255 11.3 32.2 0.00 0.00 0.00 82 1008.4
20260508114506 10 246 4.8 32.2 0.00 0.00 0.00 82 1008.4
20260508114006 10 261 11.3 32.2 0.00 0.00 0.00 82 1008.4
20260508113505 10 245 11.3 27.4 0.00 0.00 0.00 82 1008.4
20260508113006 10 255 8.0 27.4 0.00 0.00 0.00 82 1008.4
20260508112506 10 255 9.7 27.4 0.00 0.00 0.00 82 1008.4
20260508111006 10 258 8.0 20.9 0.00 0.00 0.00 82 1008.4
20260508110506 10 246 8.0 22.5 0.00 0.00 0.00 82 1008.4
20260508110006 10 247 9.7 22.5 0.00 0.00 0.00 82 1008.4
20260508105506 10 257 9.7 22.5 0.00 0.00 0.00 82 1008.4
20260508105006 10 271 8.0 22.5 0.00 0.00 0.00 82 1008.4
20260508104506 10 280 8.0 22.5 0.00 0.00 0.00 82 1008.4
20260508104006 10 253 8.0 22.5 0.00 0.00 0.00 82 1008.4
20260508103507 10 273 4.8 22.5 0.00 0.00 0.00 82 1008.4
20260508103006 10 275 8.0 20.9 0.00 0.00 0.00 82 1008.4
20260508102506 10 261 4.8 12.9 0.00 0.00 0.00 82 1008.4
20260508102006 10 261 4.8 22.5 0.00 0.00 0.00 82 1008.4
20260508101507 10 247 4.8 22.5 0.00 0.00 0.00 82 1008.4
20260508101007 10 235 4.8 22.5 0.00 0.00 0.00 82 1008.4
20260508100507 10 239 8.0 19.3 0.00 0.00 0.00 82 1008.4
20260508100006 10 255 9.7 22.5 0.00 0.00 0.00 82 1008.4
20260508095506 10 253 8.0 22.5 0.00 0.00 0.00 82 1008.4
20260508095006 10 254 8.0 22.5 0.00 0.00 0.00 82 1008.4
20260508094507 10 262 8.0 22.5 0.00 0.00 0.00 82 1008.4
20260508094007 10 239 9.7 20.9 0.00 0.00 0.00 82 1008.4
20260508093006 10 262 8.0 24.1 0.00 0.00 0.00 82 1008.4
20260508092505 10 234 11.3 20.9 0.00 0.00 0.00 82 1008.4
20260508092006 10 245 8.0 19.3 0.00 0.00 0.00 82 1008.4
20260508091506 10 261 6.4 25.7 0.00 0.00 0.00 82 1008.4
20260508091008 10 240 9.7 25.7 0.00 0.00 0.00 82 1008.4
20260508090506 10 258 8.0 22.5 0.00 0.00 0.00 82 1008.4
20260508090006 10 244 8.0 22.5 0.00 0.00 0.00 82 1008.4
20260508085008 10 239 6.4 19.3 0.00 0.00 0.00 82 1008.4
20260508084557 10 241 4.8 19.3 0.00 0.00 0.00 82 1008.4
20260508083506 10 251 6.4 19.3 0.00 0.00 0.00 82 1008.4
20260508083006 10 260 4.8 11.3 0.00 0.00 0.00 82 1008.4
20260508082506 10 249 3.2 9.7 0.00 0.00 0.00 82 1008.4
20260508081506 10 273 3.2 16.1 0.00 0.00 0.00 82 1008.4
20260508081006 10 271 3.2 12.9 0.00 0.00 0.00 82 1008.4
20260508080006 10 246 3.2 16.1 0.00 0.00 0.00 82 1008.4
20260508075006 10 269 3.2 14.5 0.00 0.00 0.00 82 1008.4
20260508074506 10 216 4.8 14.5 0.00 0.00 0.00 82 1008.4
20260508073505 10 258 1.6 16.1 0.00 0.00 0.00 82 1008.4
20260508073006 10 262 4.8 19.3 0.00 0.00 0.00 82 1008.4
20260508072506 10 247 4.8 19.3 0.00 0.00 0.00 82 1008.4
20260508072006 10 242 4.8 19.3 0.00 0.00 0.00 82 1008.4
20260508071506 10 268 1.6 11.3 0.00 0.00 0.00 82 1008.4
20260508071006 10 291 3.2 16.1 0.00 0.00 0.00 82 1008.4
20260508070506 10 253 4.8 16.1 0.00 0.00 0.00 82 1008.4
20260508070006 10 257 3.2 16.1 0.00 0.00 0.00 82 1008.4
20260508065506 10 254 4.8 12.9 0.00 0.00 0.00 82 1008.4
20260508065007 10 286 3.2 11.3 0.00 0.00 0.00 82 1008.4
20260508064507 10 239 3.2 12.9 0.00 0.00 0.00 82 1008.4
20260508064015 10 257 3.2 14.5 0.00 0.00 0.00 82 1008.4
20260508063506 10 278 3.2 14.5 0.00 0.00 0.00 82 1008.4
20260507232034 10 244 3.2 9.7 0.00 0.00 0.00 82 1008.4
20260507231604 10 256 3.2 9.7 0.00 0.00 0.00 82 1008.4
20260507230014 10 236 3.2 16.1 0.00 0.00 0.00 82 1008.4
20260507225534 10 311 3.2 16.1 0.00 0.00 0.00 82 1008.4
20260507225024 10 262 4.8 16.1 0.00 0.00 0.00 82 1008.4
20260507224522 10 249 4.8 19.3 0.00 0.00 0.00 82 1008.4
20260507224013 10 222 3.2 19.3 0.00 0.00 0.00 82 1008.5
20260507223119 10 265 4.8 19.3 0.00 0.00 0.00 80 1008.6
20260507222518 10 339 3.2 11.3 0.00 0.00 0.00 81 1008.6
20260507221016 10 261 3.2 11.3 0.00 0.00 0.00 81 1008.5
20260507220516 10 225 3.2 11.3 0.00 0.00 0.00 81 1008.5
20260507220132 10 210 3.2 20.9 0.00 0.00 0.00 80 1008.6
20260507215516 10 252 3.2 20.9 0.00 0.00 0.00 80 1008.6
20260507215011 10 216 4.8 20.9 0.00 0.00 0.00 80 1008.7
20260507214513 10 231 4.8 14.5 0.00 0.00 0.00 79 1008.7
20260507213515 10 259 4.8 16.1 0.00 0.00 0.00 79 1008.8
20260507213011 10 237 4.8 14.5 0.00 0.00 0.00 79 1008.8
20260507212519 10 232 3.2 11.3 0.00 0.00 0.00 80 1008.8
20260507212010 10 228 3.2 11.3 0.00 0.00 0.00 80 1008.8
20260507211519 10 219 3.2 11.3 0.00 0.00 0.00 80 1008.9
20260507211009 10 265 1.6 9.7 0.00 0.00 0.00 80 1008.8
20260507210531 10 223 1.6 9.7 0.00 0.00 0.00 80 1008.8
20260507210013 10 276 3.2 9.7 0.00 0.00 0.00 80 1008.8
20260507205511 10 198 1.6 11.3 0.00 0.00 0.00 79 1008.7
20260507204513 10 197 4.8 12.9 0.00 0.00 0.00 79 1008.5
20260507203019 10 182 4.8 24.1 0.00 0.00 0.00 78 1008.3
20260507202525 10 242 6.4 24.1 0.00 0.00 0.00 77 1008.2
20260507202016 10 153 3.2 24.1 0.00 0.00 0.00 76 1008.2
20260507201010 11 235 6.4 16.1 0.00 0.00 0.00 75 1008.1
20260507200512 11 285 3.2 19.3 0.00 0.00 0.00 73 1008.1
20260507200007 11 219 3.2 19.3 0.00 0.00 0.00 72 1008.1
20260507195508 11 253 4.8 24.1 0.00 0.00 0.00 71 1008.1
20260507195009 11 248 3.2 24.1 0.00 0.00 0.00 70 1008.1
20260507194509 12 219 8.0 24.1 0.00 0.00 0.00 69 1008.1
20260507194008 12 242 4.8 20.9 0.00 0.00 0.00 69 1008.1
20260507193509 12 245 8.0 25.7 0.00 0.00 0.00 68 1008.1
20260507193009 12 244 8.0 25.7 0.00 0.00 0.00 68 1008.0
20260507192507 12 254 11.3 25.7 0.00 0.00 0.00 67 1008.0
20260507192009 12 247 8.0 25.7 0.00 0.00 0.00 65 1008.0
20260507191508 12 262 4.8 16.1 0.00 0.00 0.00 65 1008.0
20260507191007 12 275 6.4 19.3 0.00 0.00 0.00 64 1007.9
20260507190506 12 272 8.0 20.9 0.00 0.00 0.00 63 1007.9
20260507190007 13 259 8.0 20.9 0.00 0.00 0.00 62 1008.0
20260507185506 13 252 4.8 20.9 0.00 0.00 0.00 61 1007.9
20260507185007 13 250 8.0 32.2 0.00 0.00 0.00 61 1007.9
20260507184506 13 248 8.0 32.2 0.00 0.00 0.00 61 1007.8
20260507184008 13 244 6.4 32.2 0.00 0.00 0.00 62 1007.6